Fort Wayne, IN

6:02 PM EDT on August 21, 2017 (GMT -0400)
Fort Wayne International

Weather History for KFWA - October, 2012

Change the Weather History Date:

Wednesday, October 3, 2012

  Actual Average Record
Temperature  
Mean Temperature 61 °F 57 °F  
Max Temperature 65 °F 69 °F 91 °F (1898)
Min Temperature 57 °F 46 °F 25 °F (1974)
Degree Days  
Heating Degree Days 4 9  
Month to date heating degree days 22 25  
Since 1 July heating degree days 162 141  
Cooling Degree Days 0 1  
Month to date cooling degree days 0 3  
Year to date cooling degree days 1105 803  
Growing Degree Days 10 (Base 50)    
Moisture  
Dew Point 56 °F    
Average Humidity 84    
Maximum Humidity 100    
Minimum Humidity 67    
Precipitation  
Precipitation T in 0.10 in 1.75 in (1954)
Month to date precipitation 0.32 0.29  
Year to date precipitation 22.79 29.93  
Snow  
Snow 0.00 in 0.00 in 0.00 in (2002)
Month to date snowfall 0.0 0.0  
Since 1 July snowfall 0.0 0.0  
Since 1 September snowfall 0.0  
Snow Depth 0.00 in    
Sea Level Pressure  
Sea Level Pressure 29.99 in    
Wind  
Wind Speed 9 mph (South)    
Max Wind Speed 17 mph    
Max Gust Speed 22 mph    
Visibility 6 miles    
Events Fog , Rain    
T = Trace of Precipitation, MM = Missing Value Source: NWS Daily Summary

Daily Weather History Graph

Daily Weather History Graph

Search for Another Location

Airport or City:

Trip Planner

Search our weather history database for the weather conditions in past years. The results will help you decide how hot, cold, wet, or windy it might be!

Date:

Astronomy

Oct. 03, 2012 Rise Set
Actual Time 7:39 AM EDT 7:18 PM EDT
Civil Twilight 7:12 AM EDT 7:45 PM EDT
Nautical Twilight 6:40 AM EDT 8:17 PM EDT
Astronomical Twilight 6:08 AM EDT 8:49 PM EDT
Moon 9:08 PM EDT (10/3) 11:04 AM EDT (10/3)
Length of Visible Light 12h 33m
Length of Day
11h 38m
Waning Gibbous, 89% of the Moon is Illuminated
Oct 3
Waning Gibbous
Oct 8
Last Quarter
Oct 15
New
Oct 21
First Quarter
Oct 29
Full

Hourly Weather History & Observations

Time (EDT) Temp. Dew Point Humidity Pressure Visibility Wind Dir Wind Speed Gust Speed Precip Events Conditions
12:11 AM 60.8 °F 60.8 °F 100% 29.91 in 1.2 mi Calm Calm - 0.03 in Rain Light Rain
12:32 AM 60.8 °F 59.0 °F 94% 29.91 in 2.0 mi East 3.5 mph - 0.03 in Rain Light Rain
12:54 AM 60.1 °F 60.1 °F 100% 29.91 in 1.5 mi East 3.5 mph - 0.03 in   Overcast
1:54 AM 60.1 °F 60.1 °F 100% 29.92 in 2.0 mi SE 4.6 mph - 0.00 in   Light Drizzle
2:01 AM 60.8 °F 60.8 °F 100% 29.92 in 1.8 mi SE 5.8 mph - 0.00 in   Light Drizzle
2:15 AM 60.8 °F 60.8 °F 100% 29.92 in 1.2 mi East 5.8 mph - 0.00 in Rain Light Rain
2:24 AM 60.8 °F 60.8 °F 100% 29.92 in 1.2 mi ESE 5.8 mph - 0.00 in   Light Drizzle
2:54 AM 60.1 °F 60.1 °F 100% 29.92 in 1.5 mi ESE 4.6 mph - 0.00 in   Light Drizzle
3:28 AM 59.0 °F 59.0 °F 100% 29.92 in 1.0 mi Calm Calm - 0.00 in   Mostly Cloudy
3:33 AM 59.0 °F 59.0 °F 100% 29.92 in 0.5 mi Calm Calm - 0.00 in Fog Fog
3:38 AM 59.0 °F 59.0 °F 100% 29.92 in 0.2 mi Calm Calm - 0.00 in Fog Fog
3:54 AM 57.9 °F 57.9 °F 100% 29.92 in 0.1 mi SSE 3.5 mph - 0.00 in Fog Fog
4:04 AM 59.0 °F 59.0 °F 100% 29.93 in 0.1 mi Calm Calm - N/A Fog Fog
4:23 AM 57.2 °F 57.2 °F 100% 29.93 in 0.2 mi SSE 4.6 mph - N/A Fog Fog
4:30 AM 57.2 °F 57.2 °F 100% 29.93 in 0.5 mi South 4.6 mph - N/A Fog Fog
4:35 AM 57.2 °F 57.2 °F 100% 29.93 in 1.5 mi South 4.6 mph - N/A   Mostly Cloudy
4:44 AM 57.2 °F 57.2 °F 100% 29.94 in 3.0 mi South 5.8 mph - N/A   Overcast
4:54 AM 57.9 °F 57.9 °F 100% 29.94 in 3.0 mi South 6.9 mph - N/A   Overcast
5:54 AM 59.0 °F 57.9 °F 96% 29.96 in 4.0 mi South 8.1 mph - N/A   Overcast
6:54 AM 57.9 °F 55.9 °F 93% 29.97 in 5.0 mi SSW 8.1 mph - N/A   Overcast
7:54 AM 57.9 °F 55.9 °F 93% 29.99 in 5.0 mi SSW 5.8 mph - N/A   Overcast
8:54 AM 57.9 °F 55.9 °F 93% 30.01 in 8.0 mi South 6.9 mph - N/A   Overcast
9:09 AM 57.2 °F 55.4 °F 94% 30.01 in 8.0 mi South 8.1 mph - N/A   Overcast
9:29 AM 57.2 °F 55.4 °F 94% 30.01 in 7.0 mi South 8.1 mph - N/A   Overcast
9:54 AM 57.9 °F 55.9 °F 93% 30.02 in 8.0 mi South 8.1 mph - N/A   Overcast
10:09 AM 59.0 °F 55.4 °F 88% 30.03 in 8.0 mi South 12.7 mph - N/A   Overcast
10:34 AM 57.2 °F 55.4 °F 94% 30.03 in 8.0 mi SSW 8.1 mph - N/A   Overcast
10:54 AM 59.0 °F 57.0 °F 93% 30.03 in 9.0 mi South 8.1 mph - N/A   Overcast
11:05 AM 59.0 °F 55.4 °F 88% 30.03 in 9.0 mi South 10.4 mph - N/A   Overcast
11:21 AM 59.0 °F 55.4 °F 88% 30.03 in 10.0 mi SSW 11.5 mph - N/A   Overcast
11:54 AM 61.0 °F 55.9 °F 83% 30.03 in 10.0 mi SSW 11.5 mph - N/A   Overcast
12:06 PM 60.8 °F 55.4 °F 82% 30.03 in 10.0 mi South 15.0 mph - N/A   Overcast
12:15 PM 60.8 °F 55.4 °F 82% 30.04 in 10.0 mi South 15.0 mph - N/A   Overcast
12:54 PM 60.1 °F 55.0 °F 83% 30.04 in 10.0 mi South 10.4 mph - N/A   Overcast
1:54 PM 60.1 °F 55.0 °F 83% 30.04 in 10.0 mi South 13.8 mph - N/A   Overcast
2:54 PM 61.0 °F 55.9 °F 83% 30.02 in 10.0 mi SSW 13.8 mph - N/A   Overcast
3:38 PM 62.6 °F 55.4 °F 77% 30.03 in 10.0 mi SSW 9.2 mph - N/A   Overcast
3:54 PM 63.0 °F 55.0 °F 75% 30.02 in 10.0 mi SSW 11.5 mph - N/A   Overcast
4:54 PM 64.0 °F 55.0 °F 73% 30.02 in 10.0 mi SSW 10.4 mph - N/A   Mostly Cloudy
5:54 PM 64.0 °F 54.0 °F 70% 30.04 in 10.0 mi SW 11.5 mph - N/A   Mostly Cloudy
6:54 PM 64.0 °F 53.1 °F 67% 30.04 in 10.0 mi SSW 10.4 mph - N/A   Mostly Cloudy
7:54 PM 61.0 °F 54.0 °F 78% 30.06 in 10.0 mi South 5.8 mph - N/A   Mostly Cloudy
8:54 PM 61.0 °F 53.1 °F 75% 30.06 in 10.0 mi South 5.8 mph - N/A   Mostly Cloudy
9:54 PM 60.1 °F 53.1 °F 78% 30.07 in 10.0 mi South 8.1 mph - N/A   Mostly Cloudy
10:54 PM 57.0 °F 51.1 °F 81% 30.08 in 10.0 mi South 6.9 mph - N/A   Scattered Clouds
11:54 PM 57.9 °F 51.1 °F 78% 30.09 in 10.0 mi South 9.2 mph - N/A   Partly Cloudy